Home   Weather   Bandar-Abbas   Past weeks

Flag for Iran Past Weather in Bandar-Abbas, Iran — Yesterday and Last 2 Weeks

Now
55 °F

Clear.


Feels Like: 55 °F
Forecast: 57 / 76 °F
Wind: 5 mph from North

Location: Bandarabbass

Current Time: Dec 11, 2016 at 3:49:05 am

Latest Report: Dec 11, 2016 at 2:30 am


Visibility: 10 mi

Pressure: 29.92 "Hg

Humidity: 67%

Dew Point: 45 °F

Location of Bandar-AbbasLocation

Past Weather in Bandar-Abbas — Graph

°F

Bandar-Abbas Temperature Yesterday

Maximum temperature yesterday: 79 °F (at 12:30 pm)
Minimum temperature yesterday: 59 °F (at 10:30 pm)
Average temperature yesterday: 71 °F

High & Low Weather Summary for the Past Weeks

 TemperatureHumidityPressure
High88 °F (Dec 4, 2:00 pm)100% (Dec 4, 6:30 am)30.12 "Hg (Dec 4, 6:30 am)
Low55 °F (Nov 28, 4:30 am)23% (Dec 10, 1:00 pm)29.83 "Hg (Dec 9, 2:00 pm)
Average73 °F66%30.00 "Hg
* Reported Nov 26 2:30 am — Dec 11 2:30 am, Bandar-Abbas, Weather by CustomWeather, © 2016

Note: Actual official high and low records may vary slightly from our data, if they occured in-between our weather recording intervals... More about our weather records

Advertising

Bandar-Abbas Weather History for the Previous 24 Hours

Scroll right to see more
 ConditionsComfort  
Time TempWeatherWind HumidityBarometerVisibility
2:30 am
Sun, Dec 11
55 °FClear.5 mph67%29.92 "Hg10 mi
1:30 am59 °FClear.7 mph59%29.92 "Hg10 mi
1:00 am59 °FClear.7 mph63%29.92 "Hg10 mi
12:30 am59 °FClear.9 mph63%29.95 "Hg10 mi
12:00 am59 °FClear.5 mph59%29.95 "Hg10 mi
11:30 pm
Sat, Dec 10
59 °FClear.5 mph59%29.95 "Hg10 mi
11:00 pm59 °FClear.5 mph59%29.95 "Hg10 mi
10:30 pm59 °FClear.7 mph59%29.95 "Hg10 mi
10:00 pm63 °FClear.No wind56%29.95 "Hg10 mi
9:30 pm63 °FClear.No wind56%29.95 "Hg10 mi
9:00 pm68 °FClear.5 mph46%29.95 "Hg10 mi
8:30 pm70 °FClear.5 mph46%29.95 "Hg10 mi
8:00 pm68 °FClear.7 mph49%29.92 "Hg10 mi
7:30 pm70 °FClear.7 mph46%29.92 "Hg10 mi
7:00 pm70 °FClear.5 mph46%29.92 "Hg10 mi
6:30 pm70 °FClear.5 mph46%29.92 "Hg10 mi
6:00 pm70 °FClear.5 mph50%29.92 "Hg10 mi
5:30 pm72 °FClear.7 mph44%29.89 "Hg10 mi
5:00 pm73 °FSunny.9 mph41%29.89 "Hg10 mi
4:30 pm75 °FSunny.9 mph41%29.89 "Hg10 mi
4:00 pm75 °FSunny.14 mph39%29.89 "Hg10 mi
3:30 pm77 °FSunny.14 mph36%29.89 "Hg10 mi
3:00 pm77 °FSunny.16 mph34%29.89 "Hg10 mi
2:30 pm79 °FSunny.9 mph30%29.89 "Hg10 mi
2:00 pm79 °FSunny.12 mph30%29.89 "Hg10 mi
1:30 pm79 °FSunny.12 mph28%29.89 "Hg10 mi
1:00 pm79 °FSunny.14 mph23%29.89 "Hg10 mi
12:30 pm79 °FPassing clouds.12 mph28%29.92 "HgN/A
12:00 pm77 °FPassing clouds.12 mph34%29.92 "HgN/A
11:30 am77 °FPassing clouds.12 mph28%29.95 "HgN/A
11:00 am77 °FSunny.12 mph28%29.95 "Hg10 mi
10:30 am77 °FSunny.9 mph26%29.95 "Hg10 mi
10:00 am77 °FSunny.5 mph24%29.95 "Hg10 mi
9:30 am77 °FSunny.7 mph26%29.95 "Hg10 mi
9:00 am75 °FSunny.5 mph27%29.95 "Hg10 mi
8:30 am72 °FSunny.7 mph31%29.95 "Hg10 mi
8:00 am70 °FSunny.5 mph38%29.92 "Hg10 mi
7:30 am64 °FSunny.5 mph49%29.92 "Hg10 mi
7:00 am61 °FSunny.5 mph45%29.89 "Hg10 mi
6:30 am63 °FClear.5 mph39%29.89 "Hg10 mi
6:00 am64 °FClear.5 mph40%29.89 "Hg5 mi
4:30 am73 °FClear.14 mph29%29.83 "Hg5 mi
3:30 am72 °FClear.16 mph33%29.83 "Hg5 mi
Weather by CustomWeather, © 2016

See weather overviewHow to use our weather pages